Regional Weather Roundup
Issued by NWS

Home | Current Version | Previous Version | Graphics & Text | Print | Product List | Glossary Off
Versions: 1 2 3 4 5 6 7 8 9 10 11 12 13 14 15 16 17 18 19 20 21 22 23 24 25 26 27 28 29 30 31 32 33 34 35 36 37 38 39 40 41 42 43 44 45 46 47 48 49 50

000
ASUS43 KMKX 251718
RWRWI

WISCONSIN REGIONAL WEATHER ROUNDUP
NATIONAL WEATHER SERVICE MILWAUKEE/SULLIVAN WI
1200 PM CDT MON MAY 25 2015

NOTE: "FAIR" INDICATES FEW OR NO CLOUDS BELOW 12,000 FEET WITH NO
SIGNIFICANT WEATHER AND/OR OBSTRUCTIONS TO VISIBILITY.

WIZ001-002-006>008-014>016-023>028-251800-
NORTHWEST WISCONSIN

CITY           SKY/WX    TMP DP  RH WIND       PRES   REMARKS
SUPERIOR ARPT  DRIZZLE   49  49  99 E16       29.70S
ASHLAND        FOG       49  49 100 N9        29.69R VSB 1/2
HAYWARD        LGT RAIN  61  57  87 SW8       29.68S
SIREN          CLOUDY    60  59  96 S3        29.68S FOG
CUMBERLAND     CLOUDY    61  59  94 SW8       29.69S
RICE LAKE      CLOUDY    63  60  88 S6        29.70S
CHETEK         CLOUDY    63  61  95 S6        29.69S
LADYSMITH      CLOUDY    62  61  97 SW9       29.71S
EAU CLAIRE     CLOUDY    66  60  81 SW12      29.69S
MENOMONIE      CLOUDY    66  62  87 S10       29.70R
NEW RICHMOND   CLOUDY    65  61  87 SW16      29.68S
OSCEOLA        CLOUDY    66  63  91 SW13      29.71R
$$

WIZ003>005-009-010-017-018-251800-
NORTH CENTRAL WISCONSIN

CITY           SKY/WX    TMP DP  RH WIND       PRES   REMARKS
MANITOWISH WTR LGT RAIN  60  60 100 S5        29.68S
ARBOR VITAE    RAIN      62  60  95 CALM      29.69S
WOODRUFF       RAIN      62  60  95 CALM      29.69S
RHINELANDER    LGT RAIN  62  60  93 S8        29.71S
EAGLE RIVER    LGT RAIN  59  59  99 SE5       29.69F
LAND O LAKES   CLOUDY    59  58  97 SE5       29.71S
PHILLIPS       RAIN      61  61  99 SW9       29.68S
TOMAHAWK       CLOUDY    63  61  96 CALM      29.70F
MEDFORD        LGT RAIN  63  60  93 SW12      29.72R
MERRILL        CLOUDY    65  64  96 SW9G16    29.71S
$$

WIZ029-030-035-036-043>047-251800-
CENTRAL WISCONSIN

CITY           SKY/WX    TMP DP  RH WIND       PRES   REMARKS
WAUSAU         LGT RAIN  64  62  93 SW10G21   29.70S
MOSINEE        NOT AVBL
MARSHFIELD     CLOUDY    67  62  84 SW13      29.73S
STEVENS POINT  CLOUDY    66  62  88 SW16G22   29.73S
WAUPACA        CLOUDY    70  67  91 SW12      29.74R
WAUTOMA        PTSUNNY   72  66  83 SW14G26   29.75S
WISC RAPIDS    CLOUDY    67  61  81 W10G23    29.75R
CAMP DOUGLAS   PTSUNNY   70  70 100 SW13      29.73F
$$

WIZ011>013-019>022-031-037>040-048>050-251800-
NORTHEAST WISCONSIN

CITY           SKY/WX    TMP DP  RH WIND       PRES   REMARKS
ANTIGO         CLOUDY    59  59 100 S6        29.72S
SHAWANO        CLOUDY    64  63  96 W6        29.71R FOG
OCONTO         CLOUDY    65  65 100 S5        29.68F
STURGEON BAY   CLOUDY    59  55  88 S16G24    29.73F
GREEN BAY      LGT RAIN  69  65  86 SW15G24   29.72R
MANITOWOC      CLOUDY    72  63  73 SW21G26   29.74F
APPLETON       PTSUNNY   68  64  88 SW17G26   29.75R
CLINTONVILLE   LGT RAIN  66  64  94 SW10      29.71S
OSHKOSH        PTSUNNY   71  62  73 SW12G20   29.75R
$$

WIZ032>034-041-042-053>061-251800-
SOUTHWEST WISCONSIN

CITY           SKY/WX    TMP DP  RH WIND       PRES   REMARKS
LA CROSSE      CLOUDY    73  61  65 SW14      29.73S
SPARTA         CLOUDY    70  60  69 SW9G18    29.75S
VIROQUA        CLOUDY    67  65  94 SW17      29.78S
BOSCOBEL       CLOUDY    71  65  81 SW10      29.79S
PRAIRIE DU CHI CLOUDY    70  62  76 SW12      29.80S
PLATTEVILLE    CLOUDY    69  65  86 SW20G25   29.84R
$$

WIZ056-057-062-063-064-067-068-251800-
SOUTH CENTRAL WISCONSIN

CITY           SKY/WX    TMP DP  RH WIND       PRES   REMARKS
REEDSBURG      CLOUDY    69  64  85 SW14      29.77S
BARABOO/DELLS  CLOUDY    67  63  87 SW9       29.78S
LONE ROCK      CLOUDY    70  63  78 W13G24    29.80R
MINERAL POINT  CLOUDY    70  63  78 SW16G23   29.83R
MADISON        PTSUNNY   70  62  76 W8        29.80R
MIDDLETON      PTSUNNY   72  64  74 SW14G20   29.81R
WATERTOWN      CLOUDY    69  65  85 SW18      29.80R
MONROE         CLOUDY    68  63  83 SW22G28   29.84S
JANESVILLE     LGT RAIN  70  66  88 SW14G20   29.84R
$$

WIZ051-052-058>065-066-070>072-251800-
SOUTHEAST WISCONSIN

CITY           SKY/WX    TMP DP  RH WIND       PRES   REMARKS
MILWAUKEE      PTSUNNY   73  60  63 SW23G32   29.82R
WAUKESHA       PTSUNNY   70  63  78 SW16G23   29.83R
MILWAUKEE/TIMM NOT AVBL
RACINE         LGT RAIN  71  62  73 SW18G28   29.85R
BURLINGTON     CLOUDY    69  61  76 SW20      29.84R
KENOSHA        PTSUNNY   74  66  76 W16G25    29.84R
FOND DU LAC    PTSUNNY   71  62  73 SW16G24   29.76S
SHEBOYGAN      CLOUDY    73  62  68 SW22G29   29.77R
WEST BEND      CLOUDY    72  61  68 SW14G23   29.79R
JUNEAU         CLOUDY    71  63  74 SW23G29   29.80S
$$

LSZ147-162-251800-
LAKE SUPERIOR

STATION/POSITION TIME  TEMP    WIND        PRES    WAVE
                       AIR SEA DIR/SP/G            HT/PER
                 (UTC) (F)     (DEG/KT/KT) (MB)    (FT/S)
W MID LAKE BUOY  1650   42 36   40/ 16/ 19 1060.0F   3/ 4
DEVILS ISLAND    1700   44      60/ 23/ 26 1056.0F
PORT WING        1640   45      30/ 15/ 16 1058.0F
SAXON HARBOR     1600   49      CALM  /  5 1047.0F
$$

LMZ867-665-643>646-251800-
LAKE MICHIGAN

STATION/POSITION TIME  TEMP    WIND        PRES    WAVE
                       AIR SEA DIR/SP/G            HT/PER
                 (UTC) (F)     (DEG/KT/KT) (MB)    (FT/S)
CHAMBERS ISLAND  1600   60     150/  5/ 11 1068.0F
N MID LAKE BUOY  1650   46 37  190/ 16/ 19 1072.0F   2/ 3
NORTHPORT PIER   1600   49     140/  9/ 11 1075.0F
SISTER BAY       1617   58     180/ 15/ 22   N/A
KEWAUNEE LAKESHO 1600   48     180/ 13/ 15 1065.0F
SHEBOYGAN LAKESH 1700   51     160/ 21/ 21 1083.0R
PORT WASHINGTON  1640          250/ 12/ 22   N/A
ATWATER BUOY     1600   67 46  210/ 16/ 19   N/A
MILWAUKEE LAKESH 1600   69     220/ 14/ 18   N/A
S MID LAKE BUOY  1650   47 38  210/ 10/ 14   N/A     2/ 4
KENOSHA   LAKESH 1700   73     240/ 15/ 24   N/A
$$

TC  - TEMPERATURE IN CELSIUS
VSB - VISIBILITY IN STATUTE MILES
WCI - WIND CHILL INDEX
HX  - HEAT INDEX




USA.gov is the U.S. government's official web portal to all federal, state and local government web resources and services.